Regional Weather Roundup
Issued by NWS

Home | Current Version | Previous Version | Graphics & Text | Print | Product List | Glossary On
Versions: 1 2 3 4 5 6 7 8 9 10 11 12 13 14 15 16 17 18 19 20 21 22 23 24 25 26 27 28 29 30 31 32 33 34 35 36 37 38 39 40 41 42 43 44 45 46 47 48 49 50
000
ASUS43 KTOP 190108
RWRKS

WEATHER ROUNDUP FOR KANSAS
NATIONAL WEATHER SERVICE GOODLAND KS
800 PM CDT FRI APR 18 2014

NOTE:  "FAIR" INDICATES FEW OR NO CLOUDS BELOW 12,000 FEET WITH NO
SIGNIFICANT WEATHER AND/OR OBSTRUCTIONS TO VISIBILITY.

KSZ001>006-013>018-027>032-041>047-190200-
NORTHWEST KANSAS

CITY           SKY/WX    TMP DP  RH WIND       PRES   REMARKS
GOODLAND       MOCLDY    68  42  38 S23G31    29.91R
HAYS           CLEAR     66  43  42 S21G26    30.01R
HILL CITY      PTCLDY    69  41  36 S15G31    29.97R
RUSSELL        CLEAR     65  42  43 S20       30.01R
$$

KSZ061>065-074>080-084>089-190200-
SOUTHWEST KANSAS

CITY           SKY/WX    TMP DP  RH WIND       PRES   REMARKS
DODGE CITY     CLEAR     65  40  39 S20       30.02S
ELKHART          N/A     70  42  36 S17         N/A
GARDEN CITY    PTCLDY    64  42  44 S17G26    29.98S
GREAT BEND     CLEAR     66  43  42 S18G26    30.03R
LIBERAL        PTCLDY    64  43  45 S23G29    30.01R
PRATT          CLEAR     64  41  42 S16G22    30.07S
$$

KSZ066>073-081>083-090>101-190200-
SOUTHEAST KANSAS

CITY           SKY/WX    TMP DP  RH WIND       PRES   REMARKS
CHANUTE        CLEAR     62  42  47 SE6       30.14S
COFFEYVILLE    CLEAR     67  40  37 SE3       30.13S
HUTCHINSON     CLEAR     66  41  40 S16       30.07S
MEDICINE LODGE   N/A     67  42  40 S9        30.06S
NEWTON         CLEAR     64  37  36 S12       30.12S
PARSONS        CLEAR     66  39  37 CALM      30.14F
WICHITA INTL   PTCLDY    66  41  40 S13       30.08F
WICHITA JABRA  PTCLDY    65  41  41 S12       30.09S
WICHITA MCCONL PTCLDY    66  41  40 SE7       30.09F
WINFIELD       PTCLDY    65  41  41 SE6       30.11F
$$

KSZ007>012-019>026-033>040-048>060-102>105-190200-
NORTHEAST KANSAS

CITY           SKY/WX    TMP DP  RH WIND       PRES   REMARKS
CONCORDIA      MOCLDY    66  42  41 S17       30.04F
EMPORIA        PTCLDY    62  41  46 S7        30.12R
LAWRENCE       CLEAR     61  41  47 SE8       30.14S
MANHATTAN      PTCLDY    66  41  40 SE9       30.09S
OLATHE IND     CLEAR     61  42  49 SE6       30.16S
OLATHE EXE     CLEAR     62  41  46 SE5       30.15S
SALINA         PTCLDY    67  41  38 S16       30.06F
TOPEKA BILLARD CLEAR     62  41  46 SE8       30.13S
TOPEKA FORBES  PTCLDY    63  40  42 SE9       30.12F
$$



USA.gov is the U.S. government's official web portal to all federal, state and local government web resources and services.